Regional Weather Roundup
Issued by NWS

Home | Current Version | Previous Version | Graphics & Text | Print | Product List | Glossary On
Versions: 1 2 3 4 5 6 7 8 9 10 11 12 13 14 15 16 17 18 19 20 21 22 23 24 25 26 27 28 29 30 31 32 33 34 35 36 37 38 39 40 41 42 43 44 45 46 47 48 49 50
000
ASUS43 KFSD 200502
RWRSD

WEATHER ROUNDUP FOR SOUTH DAKOTA
NATIONAL WEATHER SERVICE SIOUX FALLS SD
1200 AM CDT FRI APR 20 2018

NOTE: "FAIR" INDICATES FEW OR NO CLOUDS BELOW 12,000 FEET WITH NO
SIGNIFICANT WEATHER AND/OR OBSTRUCTIONS TO VISIBILITY.


SDZ001>005-009-010-012>017-200600-
NORTHWEST AND NORTH CENTRAL SOUTH DAKOTA

CITY           SKY/WX    TMP DP  RH WIND       PRES   REMARKS
BUFFALO          N/A     43  30  60 E16       30.14S
FAITH            N/A     38  31  76 SE17      30.24S
MOBRIDGE       MOCLDY    40  29  64 SE9       30.31F
$$

SDZ012>016-024>037-041>051-057-063-072>074-200600-
SOUTHWEST AND SOUTH CENTRAL SOUTH DAKOTA

CITY           SKY/WX    TMP DP  RH WIND       PRES   REMARKS
RAPID CTY ARPT CLOUDY    43  31  62 SE14      30.18S
PIERRE         MOCLDY    37  29  72 SE15      30.31F
CUSTER         CLOUDY    40  24  53 SE9G17    30.18S
ELLSWORTH AFB  CLOUDY    44  32  64 SE16      30.18R
PHILIP         MOCLDY    37  30  75 E10       30.26S
PINE RIDGE     CLOUDY    46  30  53 E14       30.17F
SPEARFISH      FAIR      41  32  70 E21       30.13F
WINNER         FAIR      36  27  69 SE14      30.33F
$$

SDZ004>011-016>023-039-040-200600-
NORTHEAST SOUTH DAKOTA

CITY           SKY/WX    TMP DP  RH WIND       PRES   REMARKS
ABERDEEN       PTCLDY    33  27  78 S5        30.41R WCI  29
WATERTOWN      CLOUDY    32  28  85 S6        30.41R WCI  26
BROOKINGS      CLOUDY    31  28  89 SE6       30.43S WCI  25
SISSETON         N/A     40  30  67 SW9       30.40R
$$

SDZ017-020-022-023-036>040-048>070-200600-
SOUTHEAST SOUTH DAKOTA

CITY           SKY/WX    TMP DP  RH WIND       PRES   REMARKS
SIOUX FALLS    CLOUDY    32  25  75 E6        30.44R WCI  26
HURON          PTCLDY    35  28  75 SE7       30.41S WCI  29
CHAMBERLAIN    PTCLDY    37  35  92 SE13      30.36F
MITCHELL       PTCLDY    33  29  85 SE9       30.42S WCI  25
YANKTON        CLEAR     33  27  78 E8        30.42S WCI  26
$$

ABBREVIATIONS USED IN REMARKS
   TC - TEMPERATURE IN CELSIUS
  WCI - WIND CHILL INDEX
   HX - HEAT INDEX
  VSB - VISIBILITY





USA.gov is the U.S. government's official web portal to all federal, state and local government web resources and services.